Back to catalog

IRS 1B

AliveScienceSSO
NORAD 21688·PAYLOAD·🇮🇳 India

Launched Aug 29, 1991 from Baikonur Cosmodrome

Loading…

Next Passes (next 24 hours)

TLE

FreshSource: Space-Track

Epoch: Sep 14, 2026, 19:48 UTC

1 21688U 91061A   26257.82522056 -.00000197  00000-0 -10610-3 0  9994
2 21688  99.4136 268.0178 0025127 119.1565  53.0671 13.97882975681013

Track IRS 1B in real time with AllMySat

Download on the App Store